EN

Hourly Weather Lukashivka

Today, 26 November, Thursday

Time Temperature Precipitation Wind Pressure Humidity
00:00 +2°C° 0 mm 1 mps 741 mmHg 75%
01:00 +2°C° 0 mm 1 mps 741 mmHg 76%
02:00 +1°C° 0 mm 1 mps 741 mmHg 78%
03:00 +1°C° 0 mm 1 mps 741 mmHg 78%
04:00 0°C° 0 mm 0 mps 741 mmHg 79%
05:00 0°C° 0 mm 0 mps 741 mmHg 80%
06:00 0°C° 0 mm 0 mps 741 mmHg 79%
07:00 0°C° 0 mm 0 mps 741 mmHg 78%
08:00 0°C° 0 mm 0 mps 741 mmHg 76%
09:00 +2°C° 0 mm 1 mps 741 mmHg 70%
10:00 +4°C° 0 mm 1 mps 741 mmHg 63%
11:00 +5°C° 0 mm 1 mps 741 mmHg 56%
12:00 +5°C° 0 mm 2 mps 741 mmHg 54%
13:00 +5°C° 0 mm 2 mps 740 mmHg 52%
14:00 +6°C° 0 mm 2 mps 740 mmHg 53%
15:00 +4°C° 0 mm 2 mps 740 mmHg 57%
16:00 +3°C° 0 mm 2 mps 739 mmHg 62%
17:00 +2°C° 0 mm 2 mps 739 mmHg 66%
18:00 +2°C° 0 mm 2 mps 739 mmHg 67%
19:00 +1°C° 0 mm 2 mps 739 mmHg 68%
20:00 +1°C° 0 mm 2 mps 739 mmHg 69%
21:00 +1°C° 0 mm 2 mps 739 mmHg 69%
22:00 -1°C° 0 mm 2 mps 739 mmHg 69%
23:00 -1°C° 0 mm 2 mps 739 mmHg 69%

Tomorrow, 27 November, Friday

Time Temperature Precipitation Wind Pressure Humidity
00:00 -1°C° 0 mm 2 mps 739 mmHg 69%
01:00 +1°C° 0 mm 1 mps 739 mmHg 69%
02:00 +1°C° 0 mm 1 mps 739 mmHg 69%
03:00 +1°C° 0 mm 1 mps 738 mmHg 69%
04:00 +1°C° 0 mm 1 mps 738 mmHg 68%
05:00 0°C° 0 mm 1 mps 738 mmHg 68%
06:00 +1°C° 0 mm 1 mps 738 mmHg 67%
07:00 +1°C° 0 mm 1 mps 738 mmHg 67%
08:00 +1°C° 0 mm 1 mps 738 mmHg 66%
09:00 +1°C° 0 mm 2 mps 738 mmHg 61%
10:00 +2°C° 0 mm 2 mps 738 mmHg 56%
11:00 +4°C° 0 mm 2 mps 738 mmHg 51%
12:00 +4°C° 0 mm 2 mps 738 mmHg 52%
13:00 +3°C° 0 mm 3 mps 737 mmHg 52%
14:00 +4°C° 0 mm 3 mps 737 mmHg 53%
15:00 +3°C° 0 mm 3 mps 737 mmHg 57%
16:00 +3°C° 0 mm 2 mps 737 mmHg 61%
17:00 +2°C° 0 mm 2 mps 737 mmHg 65%
18:00 +2°C° 0 mm 2 mps 737 mmHg 68%
19:00 +1°C° 0 mm 2 mps 737 mmHg 71%
20:00 +1°C° 0 mm 2 mps 737 mmHg 73%
21:00 +1°C° 0 mm 2 mps 737 mmHg 78%
22:00 +1°C° 0 mm 2 mps 737 mmHg 83%
23:00 +1°C° 0 mm 2 mps 737 mmHg 88%

Day after tomorrow, 28 November, Saturday

Time Temperature Precipitation Wind Pressure Humidity
00:00 +2°C° 0 mm 2 mps 737 mmHg 90%
01:00 +2°C° 0 mm 2 mps 737 mmHg 92%
02:00 +3°C° 0 mm 1 mps 737 mmHg 94%
03:00 +3°C° 0.1 mm 1 mps 737 mmHg 94%
04:00 +3°C° 0.1 mm 1 mps 737 mmHg 95%
05:00 +3°C° 0.1 mm 1 mps 736 mmHg 96%
06:00 +3°C° 0.1 mm 1 mps 737 mmHg 96%
07:00 +3°C° 0.1 mm 1 mps 737 mmHg 96%
08:00 +2°C° 0.1 mm 1 mps 737 mmHg 96%
09:00 +3°C° 0 mm 1 mps 737 mmHg 94%
10:00 +3°C° 0 mm 1 mps 737 mmHg 91%
11:00 +4°C° 0 mm 1 mps 737 mmHg 88%
12:00 +4°C° 0 mm 1 mps 736 mmHg 87%
13:00 +4°C° 0 mm 1 mps 736 mmHg 85%
14:00 +3°C° 0 mm 0 mps 736 mmHg 83%
15:00 +3°C° 0.1 mm 0 mps 736 mmHg 86%
16:00 +3°C° 0.1 mm 0 mps 736 mmHg 89%
17:00 +2°C° 0.1 mm 0 mps 735 mmHg 91%
18:00 +3°C° 0.4 mm 1 mps 735 mmHg 92%
19:00 +3°C° 0.4 mm 1 mps 735 mmHg 93%
20:00 +3°C° 0.4 mm 1 mps 735 mmHg 95%
21:00 +2°C° 0.6 mm 2 mps 735 mmHg 95%
22:00 +2°C° 0.6 mm 2 mps 735 mmHg 95%
23:00 +1°C° 0.6 mm 2 mps 735 mmHg 96%

29 November, Sunday

Time Temperature Precipitation Wind Pressure Humidity
00:00 +1°C° 0.4 mm 2 mps 735 mmHg 96%
01:00 +1°C° 0.4 mm 2 mps 735 mmHg 96%
02:00 +1°C° 0.4 mm 2 mps 735 mmHg 96%
03:00 +1°C° 0.5 mm 2 mps 735 mmHg 96%
04:00 +1°C° 0.5 mm 2 mps 735 mmHg 96%
05:00 +1°C° 0.5 mm 2 mps 735 mmHg 96%
06:00 +2°C° 0.2 mm 1 mps 735 mmHg 96%
07:00 +2°C° 0.2 mm 1 mps 735 mmHg 96%
08:00 +2°C° 0.2 mm 1 mps 735 mmHg 96%
09:00 +2°C° 0.1 mm 1 mps 735 mmHg 96%
10:00 +2°C° 0.1 mm 1 mps 735 mmHg 95%
11:00 +2°C° 0.1 mm 1 mps 736 mmHg 94%
12:00 +2°C° 0.1 mm 1 mps 736 mmHg 93%
13:00 +2°C° 0.1 mm 2 mps 736 mmHg 91%
14:00 +2°C° 0.1 mm 2 mps 736 mmHg 89%
15:00 +1°C° 0 mm 2 mps 736 mmHg 88%
16:00 +1°C° 0 mm 2 mps 736 mmHg 87%
17:00 +2°C° 0 mm 1 mps 736 mmHg 86%
18:00 +2°C° 0 mm 1 mps 737 mmHg 86%
19:00 +1°C° 0 mm 1 mps 737 mmHg 86%
20:00 +1°C° 0 mm 1 mps 737 mmHg 86%
21:00 +1°C° 0 mm 1 mps 737 mmHg 87%
22:00 0°C° 0 mm 1 mps 738 mmHg 88%
23:00 0°C° 0 mm 1 mps 738 mmHg 89%

30 November, Monday

Time Temperature Precipitation Wind Pressure Humidity
00:00 0°C° 0 mm 1 mps 738 mmHg 88%
01:00 -3°C° 0 mm 2 mps 738 mmHg 88%
02:00 -3°C° 0 mm 2 mps 738 mmHg 87%
03:00 -3°C° 0 mm 2 mps 739 mmHg 86%
04:00 -2°C° 0 mm 2 mps 739 mmHg 85%
05:00 -2°C° 0 mm 2 mps 739 mmHg 84%
06:00 -2°C° 0 mm 2 mps 739 mmHg 83%
07:00 -2°C° 0 mm 2 mps 740 mmHg 83%
08:00 -2°C° 0 mm 2 mps 740 mmHg 82%
09:00 -2°C° 0.1 mm 3 mps 740 mmHg 82%
10:00 -1°C° 0.1 mm 3 mps 741 mmHg 81%
11:00 -1°C° 0.1 mm 3 mps 741 mmHg 81%
12:00 -2°C° 0.2 mm 4 mps 741 mmHg 83%
13:00 -2°C° 0.2 mm 4 mps 741 mmHg 85%
14:00 -2°C° 0.2 mm 4 mps 741 mmHg 87%
15:00 -2°C° 0.2 mm 4 mps 741 mmHg 87%
16:00 -2°C° 0.2 mm 4 mps 741 mmHg 88%
17:00 -2°C° 0.2 mm 4 mps 742 mmHg 89%
18:00 -2°C° 0.1 mm 4 mps 742 mmHg 88%
19:00 -4°C° 0.1 mm 5 mps 742 mmHg 88%
20:00 -4°C° 0.1 mm 5 mps 743 mmHg 87%
21:00 -4°C° 0 mm 5 mps 743 mmHg 89%
22:00 -4°C° 0 mm 5 mps 743 mmHg 90%
23:00 -2°C° 0 mm 5 mps 743 mmHg 91%

1 December, Tuesday

Time Temperature Precipitation Wind Pressure Humidity
00:00 -2°C° 0 mm 5 mps 743 mmHg 91%
01:00 -2°C° 0 mm 5 mps 743 mmHg 92%
02:00 -2°C° 0 mm 4 mps 743 mmHg 92%
03:00 -2°C° 0 mm 4 mps 743 mmHg 92%
04:00 -2°C° 0 mm 5 mps 743 mmHg 92%
05:00 -2°C° 0 mm 5 mps 743 mmHg 91%
06:00 -2°C° 0 mm 5 mps 743 mmHg 92%
07:00 -2°C° 0 mm 4 mps 743 mmHg 92%
08:00 -2°C° 0 mm 4 mps 743 mmHg 93%
09:00 -2°C° 0 mm 4 mps 743 mmHg 91%
10:00 -1°C° 0 mm 4 mps 743 mmHg 89%
11:00 -1°C° 0 mm 4 mps 743 mmHg 88%
12:00 -1°C° 0 mm 4 mps 743 mmHg 87%
13:00 -1°C° 0 mm 4 mps 743 mmHg 86%
14:00 0°C° 0 mm 4 mps 742 mmHg 85%
15:00 -1°C° 0 mm 4 mps 742 mmHg 86%
16:00 0°C° 0 mm 3 mps 742 mmHg 88%
17:00 0°C° 0 mm 3 mps 742 mmHg 89%
18:00 0°C° 0 mm 3 mps 742 mmHg 90%
19:00 -1°C° 0 mm 4 mps 742 mmHg 91%
20:00 -2°C° 0 mm 4 mps 742 mmHg 91%
21:00 -2°C° 0 mm 4 mps 742 mmHg 92%
22:00 -1°C° 0 mm 3 mps 742 mmHg 93%
23:00 -1°C° 0 mm 3 mps 742 mmHg 94%
Show more